Location: Dürnberg
(48.3333°N, 14.2167°E)
Time: 03:14:59
(UTC+00:00)

Daily predictions for brighter satellites

Satellite Brightness Start Highest point End
(mag) Time Altitude Azimuth Time Altitude Azimuth Time Altitude Azimuth
CZ-2D R/B 3.9 00:12:55 10° NNE 00:15:41 27° NE 00:15:41 27° NE
Resurs 1-4 Rocket 3.8 00:15:13 10° NNE 00:18:06 28° NE 00:18:06 28° NE
IDEFIX/ARIANE 42P 4.3 00:28:08 10° NNE 00:31:06 28° ENE 00:31:06 28° ENE
BREEZE-M DEB (TANK) 4.1 00:40:53 62° ENE 00:40:53 62° ENE 00:53:28 10° E
Lacrosse 5 3.7 00:50:03 25° ENE 00:50:03 25° ENE 00:52:17 10° ENE
ATLAS CENTAUR R/B 4.1 00:51:29 17° ENE 00:51:29 17° ENE 00:52:43 10° ENE
ATLAS 5 CENTAUR R/B 4.1 00:52:26 17° NE 00:52:26 17° NE 00:53:26 10° NE
Cosmos 1745 Rocket 4.4 01:00:35 57° ENE 01:00:35 57° ENE 01:06:01 10° NNE
SL-16 R/B 2.8 01:19:17 59° NW 01:19:17 59° NW 01:24:20 10° NNW
Cosmos 2369 Rocket 2.6 01:21:55 56° ENE 01:21:55 56° ENE 01:26:44 10° NNE
NPP 4.3 01:15:51 10° NNE 01:19:55 51° N 01:19:55 51° N
ADEOS II 2.6 01:16:19 10° NNE 01:20:29 56° NNE 01:20:29 56° NNE
Thor Agena Rocket 4.2 01:18:50 10° NNE 01:22:41 52° NNE 01:22:41 52° NNE
Cosmos 921 Rocket 4.4 01:29:06 38° NE 01:29:06 38° NE 01:32:09 10° NNE
Meteor 1-20 Rocket 4.2 01:32:46 10° N 01:38:23 75° ENE 01:38:24 75° E
Cosmos 1656 Rocket 3.7 01:39:30 72° NE 01:39:30 72° NE 01:44:31 10° NNE
CZ-4 R/B 4.4 01:34:35 10° NNE 01:38:36 58° N 01:38:36 58° N
FENGYUN 3A 4.3 01:35:34 10° NNE 01:40:50 48° E 01:41:37 45° SE
Meteor 2-2 Rocket 4.3 01:42:41 75° SE 01:42:57 77° E 01:48:55 10° NNE
CZ-2C R/B 3.8 01:38:35 10° SE 01:43:48 42° ENE 01:48:58 10° N
Cosmos 1538 Rocket 4.2 01:44:23 68° E 01:44:23 68° E 01:49:34 10° NNE
Cosmos 2278 Rocket 4.1 01:47:12 18° NW 01:47:47 18° NW 01:51:35 10° N
Cosmos 1943 Rocket 3.3 01:48:35 33° NW 01:48:35 33° NW 01:53:22 10° NNE
ERS-2 4.3 01:47:13 10° NNE 01:48:32 22° NNE 01:48:32 22° NNE
IRS-1D 4.2 01:46:11 10° NNE 01:50:58 46° E 01:51:43 43° SE
EO 1 Delta rocket 4.5 01:56:36 47° NNW 01:56:36 47° NNW 02:00:09 10° NNW
ALOS 2.9 01:52:21 10° NNE 01:56:51 48° E 01:57:21 46° ESE
ARGOS Delta rocket 4.2 01:57:20 54° E 01:57:40 56° ENE 02:02:00 10° N
CZ-2D R/B 3.1 01:53:04 10° N 01:57:00 34° NW 01:57:00 34° NW
Cosmos 1812 4.0 02:00:19 38° NE 02:00:19 38° NE 02:02:51 10° NNE
Resurs 1-4 Rocket 3.2 01:55:14 10° N 01:59:10 32° NW 01:59:10 32° NW
Cosmos 1766 Rocket 4.3 01:55:43 10° N 01:58:56 47° N 01:58:56 47° N
Cosmos 1867 3.6 01:56:43 10° NW 02:02:13 79° NE 02:07:40 10° SE
BREEZE-M DEB (TANK) 3.5 02:10:26 74° WNW 02:10:47 81° N 02:13:48 10° E
IDEFIX/ARIANE 42P 3.5 02:07:45 10° N 02:11:53 34° NW 02:11:53 34° NW
Meteor 1-25 Rocket 4.1 02:13:52 10° NNW 02:19:26 61° W 02:19:42 60° WSW
Cosmos 2221 2.4 02:19:39 81° NNW 02:19:39 81° NNW 02:23:50 10° N
SeaSat 1 2.4 02:16:31 10° NNE 02:21:25 65° WNW 02:21:50 62° W
Cosmos 2263 4.2 02:22:08 57° WSW 02:23:05 67° WNW 02:28:51 10° NNE
MSX 4.4 02:21:16 10° N 02:26:33 38° WNW 02:27:03 37° WNW
ATLAS CENTAUR R/B 2.1 02:27:11 43° NW 02:27:11 43° NW 02:31:19 10° NNE
Cosmos 44 3.2 02:29:51 59° WNW 02:30:06 60° NW 02:34:45 10° NNE
Lacrosse 5 2.5 02:29:14 39° WNW 02:30:26 46° NNW 02:35:21 10° NE
Cosmos 2285 Rocket 4.4 02:31:11 39° W 02:32:30 44° WNW 02:38:31 10° NNE
PAYLOAD A 4.4 02:28:29 10° NNE 02:33:50 63° ESE 02:37:03 23° S
ATLAS 5 CENTAUR R/B 3.3 02:33:43 18° NW 02:34:26 18° NNW 02:37:31 10° NNE
GEOS 3 Rocket 3.7 02:31:27 10° SE 02:36:40 81° NE 02:42:01 10° NW
Cosmos 1782 3.0 02:39:37 52° NW 02:39:37 52° NW 02:43:03 10° N
Meteor 1-5 Rocket 4.2 02:34:57 10° NNW 02:40:42 87° WSW 02:46:35 10° S
SL-27 R/B 3.2 02:39:24 10° N 02:42:30 47° ENE 02:45:35 10° SE
Envisat 4.0 02:40:38 10° NNE 02:45:31 45° E 02:50:22 10° S
Cosmos 1933 3.9 02:50:35 40° WNW 02:50:35 40° WNW 02:54:13 10° N
Cosmos 1408 Rocket 3.5 02:49:07 10° NNW 02:53:33 66° W 02:55:59 26° S
Cosmos 2184 Rocket 3.9 02:49:34 19° S 02:54:14 84° W 03:00:27 10° N
ATLAS 2AS CENTAUR R/B 4.4 02:48:07 10° NW 02:54:26 32° NNE 03:00:26 10° E
METEOR-M 4.1 02:49:13 10° NNE 02:54:36 87° ESE 02:58:28 19° SSW
Cosmos 2181 Rocket 4.3 02:50:50 10° NNW 02:56:54 46° W 03:00:36 23° SSW
Cosmos 1242 Rocket 4.5 02:53:55 10° NNW 02:54:57 17° NW 02:54:57 17° NW
Okean 3 Rocket 4.4 02:55:05 10° NNW 02:58:25 31° WNW 02:58:25 31° WNW
Sich 1 3.6 02:54:40 10° N 02:59:03 59° ENE 03:03:23 10° SSE
YAOGAN 6 3.1 02:55:51 10° NNE 02:59:21 57° E 03:01:40 19° S
Cosmos 807 3.9 03:00:22 70° S 03:00:39 90° W 03:03:47 10° N
ADEOS II 3.6 02:57:05 10° NNW 03:00:40 19° WNW 03:01:25 18° WNW
SL-16 R/B 4.3 03:04:22 13° WNW 03:04:22 13° WNW 03:05:51 10° NW
Cosmos 2369 Rocket 3.3 03:03:42 23° W 03:05:37 28° NW 03:10:27 10° NNE
Helios 1A 3.1 03:05:41 28° SSW 03:07:31 47° W 03:11:32 10° NNW
Cosmos 1743 Rocket 3.5 03:03:35 10° N 03:08:04 83° W 03:12:33 10° S
Cosmos 2297 Rocket 3.1 03:04:51 10° NNW 03:10:24 52° NE 03:15:54 10° SE
Cosmos 1536 4.4 03:07:05 10° N 03:10:47 37° ENE 03:14:29 10° SE
Cosmos 923 Rocket 4.2 03:08:45 29° SW 03:11:10 53° WNW 03:16:17 10° NNE
CZ-2C R/B 2.8 03:06:55 10° NNE 03:11:43 88° W 03:16:16 12° SSW
CZ-2C R/B 2.5 03:08:32 10° N 03:13:14 57° WNW 03:16:12 23° SW
NOSS 3-4 (A) 3.8 03:06:37 10° NW 03:13:31 77° SW 03:21:25 10° SSE
SAR-Lupe-2 4.1 03:09:58 10° NNE 03:13:32 59° ESE 03:17:03 10° S
NOSS 3-4 (C) 3.8 03:06:43 10° NW 03:13:38 78° SW 03:21:32 10° SSE
BREEZE-M R/B 4.0 03:07:11 19° W 03:13:39 83° N 03:16:36 10° E
Cosmos 2154 Rocket 3.9 03:10:32 10° SSW 03:16:49 76° W 03:23:06 10° N
Meteor 1-11 Rocket 4.3 03:12:29 10° N 03:18:03 61° ENE 03:23:29 10° SSE
Cosmos 1680 Rocket 3.6 03:16:16 23° SW 03:19:28 60° WNW 03:24:43 10° NNE
CZ-2D R/B 4.5 03:17:21 10° NNE 03:21:31 48° E 03:25:32 10° S
BREEZE-M DEB (TANK) 3.2 03:17:33 20° W 03:22:12 87° N 03:25:00 10° E
NOSS 3-3 (A) 4.4 03:18:44 23° W 03:22:12 48° NW 03:28:43 10° NE
NOSS 3-3 (C) 4.4 03:18:50 23° W 03:22:19 48° NW 03:28:49 10° NE
H-2A R/B 3.9 03:18:54 10° NNE 03:22:20 40° E 03:25:43 10° S
Cosmos 1842 Rocket 4.3 03:21:12 26° WSW 03:22:33 32° WNW 03:26:30 10° N
Cosmos 1484 Rocket 2.7 03:19:46 10° NNE 03:23:31 82° E 03:27:19 10° SSW
NOSS 2-1 (C) 3.8 03:19:49 10° NW 03:24:00 88° NE 03:29:55 10° SE
CZ-2C R/B 3.3 03:19:31 12° SSW 03:24:08 34° W 03:29:09 10° NNW
Nadezhda 3 Rocket 4.0 03:19:15 10° NNW 03:25:28 63° W 03:31:41 10° S
Cosmos 2227 Rocket 3.5 03:21:24 10° NNW 03:26:50 44° NE 03:32:12 10° SE
IRS-P3 4.4 03:21:43 10° NNE 03:27:04 73° ESE 03:32:23 10° S
NOSS 2-1 (D) 3.8 03:24:49 10° NW 03:29:02 86° SW 03:34:57 10° SE
Cosmos 2112 Rocket 4.1 03:26:33 18° SW 03:30:18 57° WNW 03:35:32 10° NNE
ARIANE 5 R/B 2.7 03:25:18 10° NNE 03:30:30 80° ESE 03:35:43 10° SSW
Cosmos 1371 Rocket 4.2 03:25:39 10° NW 03:30:33 44° WSW 03:35:27 10° S
Cosmos 1515 3.5 03:29:41 12° SSW 03:33:02 66° W 03:36:45 10° N
Genesis I 3.2 03:30:52 22° SW 03:33:14 68° NW 03:37:08 10° NE
ALOS 3.5 03:30:14 10° N 03:33:54 23° WNW 03:35:47 18° W
GP-B 3.3 03:29:46 10° N 03:34:13 77° E 03:38:38 10° S
Cosmos 1610 Rocket 4.5 03:29:25 10° SSW 03:35:29 65° WNW 03:41:39 10° N
Cosmos 2056 Rocket 3.9 03:33:29 10° NW 03:38:20 41° WSW 03:43:13 10° S
Cosmos 1500 Rocket 4.2 03:37:10 10° NNW 03:41:00 32° W 03:44:51 10° SSW
COSMO-SKYMED 1 3.6 03:43:34 10° SE 03:47:46 50° ENE 03:51:59 10° N
Cosmos 1805 Rocket 4.0 03:43:51 10° NNW 03:47:59 39° W 03:52:07 10° SSW
Cosmos 2341 Rocket 4.1 03:42:35 10° S 03:48:59 87° E 03:55:24 10° N
Helios 1B rocket 2.4 03:45:27 10° NNE 03:49:28 82° ESE 03:53:28 10° SSW
Cosmos 1607 4.1 03:45:10 10° SSW 03:51:18 80° SE 03:57:32 10° NE
Cosmos 1378 3.5 03:49:00 10° S 03:52:31 62° E 03:56:04 10° NNE
USA 276 1.8 03:51:00 18° WSW 03:52:59 86° SSE 03:55:54 10° ENE
Cosmos 1110 Rocket 4.3 03:50:00 10° NNW 03:55:11 73° ENE 04:00:22 10° SSE
Cosmos 192 4.3 03:52:31 10° NNW 03:57:24 66° WSW 04:02:15 10° S
SeaSat 1 4.3 03:55:14 10° N 03:58:06 16° NW 04:01:00 10° WNW
Cosmos 1328 Rocket 3.9 03:54:11 10° S 03:58:28 68° E 04:02:45 10° NNE
Meteor 1-10 Rocket 4.4 03:55:49 10° SSW 04:01:42 65° WNW 04:07:38 10° N
CZ-2C R/B 4.3 03:59:11 10° NNE 04:02:37 37° E 04:05:59 10° SSE
Cosmos 1656 3.6 03:57:11 10° SSW 04:02:37 89° WNW 04:08:09 10° NNE
USA 281 3.2 03:56:33 10° SSE 04:03:06 72° WSW 04:09:42 10° NNW
USA 32 4.3 03:59:20 10° NNW 04:04:18 44° W 04:09:15 10° SSW
Orbus 7S? 3.9 03:58:36 10° WNW 04:04:35 45° SW 04:07:42 10° SSE
Cosmos 1461 3.4 04:01:56 10° WSW 04:06:15 52° NW 04:10:46 10° NNE
Cosmos 2366 rocket 4.1 04:00:14 10° S 04:06:28 87° E 04:12:48 10° N
ATLAS CENTAUR R/B 3.7 04:04:27 10° NW 04:06:37 13° NNW 04:08:42 10° N
Cosmos 1939 Rocket 4.0 04:02:42 10° NNE 04:06:39 48° E 04:10:36 10° S
Cosmos 1331 Rocket 4.1 04:02:36 10° NNW 04:07:52 84° ENE 04:13:09 10° SSE
Cosmos 1743 3.2 04:04:29 10° NNW 04:07:57 36° W 04:11:23 10° SSW
Cosmos 2263 Rocket 4.2 04:03:12 10° NNW 04:08:09 30° NE 04:13:04 10° ESE
Lacrosse 5 3.3 04:09:50 10° WNW 04:14:21 31° N 04:18:53 10° ENE
SL-08 R/B 3.5 04:10:09 10° S 04:14:53 50° W 04:19:33 10° NNW
Cosmos 1452 Rocket 3.6 04:10:36 10° NNW 04:15:49 60° WSW 04:21:00 10° S
Cosmos 494 Rocket 4.0 04:10:43 10° SSW 04:15:58 77° WNW 04:21:15 10° NNE
SL-27 R/B 4.2 04:15:48 10° W 04:16:33 11° W 04:17:18 10° WSW
Cosmos 1151 Rocket 3.5 04:15:42 10° SW 04:19:48 40° WNW 04:23:53 10° N
DMSP B5D2-2 4.3 04:16:37 10° S 04:21:39 47° W 04:26:41 10° NNW
SL-8 Rocket 4.1 04:16:44 10° SSW 04:22:58 63° WNW 04:29:13 10° N
